Terminal Aerodrome Forecast
Issued by NWS

Home | Current Version | Previous Version | Text Only | Print | Product List | Glossary On
Versions: 1 2 3 4 5 6 7 8 9 10 11 12
000
FTUS45 KRIW 281726
TAFCOD
TAF
KCOD 281726Z 2818/2918 02008KT P6SM FEW080 SCT110
     FM282000 02010G16KT P6SM VCTS SCT060CB BKN120
     FM290200 32007KT P6SM VCSH SCT080 BKN150
     FM290600 24007KT P6SM FEW120
     FM291500 13007KT P6SM SKC
      AMD LTD TO CLD VIS AND WIND=

USA.gov is the U.S. government's official web portal to all federal, state and local government web resources and services.